Ana Sayfa
METAR-TAF:

METAR-TAF

Havaalanları :

Lawrence Municipal Airport

Lawrence, Massachusetts, Amerika Birleşik Devletleri

Enlem: 42-42-47N, Boylam: 071-07-33W, yükseklik: 45 m

Güncel hava durumu gözlemi

Rapor saat 18:54 UTC de 40 dakika önce yapıldı.
Rüzgar kuzeybatıdan 8 kt
Sıcaklık 16°C
Nem 39%
Basınç 1019 hPa
Görüş mesafesi: 16.1 km
Açık gökyüzü

METAR: KLWM 151854Z 31008KT 10SM CLR 16/02 A3010 RMK AO2 SLP192 T01560017

Saat: 15:34 (19:34 UTC)


TAF: eksik

4.000'den fazla havaalanı için hava durumu gözlemleri ve tahminleri (METAR ve TAF raporları).

Kullanılabilir istasyonlar harita üzerinde sarı ve kırmızı noktalarla gösterilir.

İstasyonun adını görmek için fareyi noktanın üzerinde gezdirin.

Sonrasında hava gözlem ve tahminlerini görmek için tıklayın.

Haritayı değiştirmek için: yaklaştırmak için siyah artı işaretli yeşil düğmeye ve uzaklaştırmak için de eksi işaretli düğmeye hızla tıklayın; bitişik haritalar için yeşil okları kullanın.


METAR-TAF: